Regional Weather Roundup
Issued by NWS

Home | Current Version | Previous Version | Graphics & Text | Print | Product List | Glossary On
Versions: 1 2 3 4 5 6 7 8 9 10 11 12 13 14 15 16 17 18 19 20 21 22 23 24 25 26 27
000
ASUS45 KBOU 301707
RWRCO

WEATHER ROUNDUP FOR COLORADO
NATIONAL WEATHER SERVICE DENVER/BOULDER CO
1100 AM MDT TUE AUG 30 2016

NOTE: "FAIR" INDICATES FEW OR NO CLOUDS BELOW 12000 FEET WITH NO
SIGNIFICANT WEATHER AND/OR OBSTRUCTIONS TO VISIBILITY.

COZ001>005-013-030-031-301800-
...NORTHWEST COLORADO...

CITY           SKY/WX    TMP DP  RH WIND       PRES   REMARKS
CRAIG          FAIR      75  37  25 E6        30.35F
HAYDEN         FAIR      70  37  30 E8        30.38F
MEEKER         FAIR      68  41  37 W5        30.36F
MOUNT WERNER   NOT AVBL
STEAMBOAT SPGS FAIR      67  39  36 W5        30.39F
WALDEN         FAIR      61  36  39 N5        30.50S
$$

COZ006>008-011-301800-
...WEST CENTRAL VALLEYS...

CITY           SKY/WX    TMP DP  RH WIND       PRES   REMARKS
GRAND JUNCTION FAIR      73  43  33 SE8       30.28F
MONTROSE       FAIR      71  44  37 VRB3      30.35F
EAGLE          SUNNY     63  43  48 CALM      30.43F
RIFLE          FAIR      68  46  45 VRB3      30.33F
DELTA          FAIR      72  43  35 CALM      30.33F
NUCLA          FAIR     N/A N/A N/A NW5       30.38F
$$

COZ017>023-064>068-301800-
...SOUTHWEST COLORADO...

CITY           SKY/WX    TMP DP  RH WIND       PRES   REMARKS
DURANGO        FAIR      68  43  40 MISG      30.41R
CORTEZ         FAIR      73  47  39 W5        30.34S
PAGOSA SPRINGS FAIR      65  39  37 S6        30.46S
TELLURIDE      FAIR      62  39  42 CALM      30.54F
WOLF CREEK PAS CLOUDY    43  37  81 CALM      30.73S
$$

COZ009-010-012-014-032>034-037-058>063-301800-
...CENTRAL COLORADO...

CITY           SKY/WX    TMP DP  RH WIND       PRES   REMARKS
ASPEN          FAIR      64  42  44 VRB5      30.45F
BUENA VISTA    FAIR      59  43  55 CALM      30.51S
COPPER MTN     CLOUDY    54  36  50 SE6       30.72S
BERTHOUD PASS  FAIR      41  30  65 E22G31    30.75S
COTTONWOOD PAS FAIR      59  41  51 E3        30.61S
GUNNISON       FAIR      57  41  54 CALM      30.51S
KREMMLING      FAIR      63  36  36 CALM      30.47F
LEADVILLE      FAIR      51  38  60 S8        30.59S
MONARCH PASS   CLOUDY    43  37  81 E3        30.82R
SALIDA         FAIR      60  45  56 CALM      30.57S
SUNLIGHT       FAIR      55  37  50 CALM      30.66S
WILKERSON PASS CLOUDY    48  37  66 CALM      30.72R
$$

COZ069>075-301800-
...SAN LUIS VALLEY/SANGRE DE CRISTO MOUNTAINS...

CITY           SKY/WX    TMP DP  RH WIND       PRES   REMARKS
ALAMOSA        FAIR      63  44  50 VRB5      30.47S
LA VETA PASS   PTSUNNY   57  45  62 MISG      30.62R
SAGUACHE       FAIR      61  43  51 S3        30.50S
$$

COZ035-036-038>040-301800-
...NORTHERN COLORADO FRONT RANGE...

CITY           SKY/WX    TMP DP  RH WIND       PRES   REMARKS
DENVER INTL AP FAIR      74  50  42 N6        30.36R
DMNS CITY PARK   N/A     71  47  41 E2        30.35S
AURORA         MOSUNNY   71  46  40 SW5       30.38R
FRONT RANGE AP MOSUNNY   73  48  40 CALM      30.37S
ERIE MUNI ARPT FAIR      74  46  36 CALM      30.35S
BOULDER MUN AP FAIR      72  50  46 NE5       30.35S
CENTENNIAL     FAIR      72  45  37 N7        30.38S
BROOMFIELD     PTSUNNY   73  46  38 NE6       30.38S
FORT COLLINS   FAIR      72  48  43 CALM      30.34S
LONGMONT       FAIR      74  49  41 CALM      30.36S
$$

COZ041-046-047-076>085-087-088-301800-
...PIKES PEAK/PALMER DIVIDE AND SOUTHERN FOOTHILLS...

CITY           SKY/WX    TMP DP  RH WIND       PRES   REMARKS
COLO. SPRINGS  FAIR      68  48  48 CALM      30.42S
A. F. ACADEMY  FAIR      67  47  47 VRB2      30.41F
SCHRIEVER AFB  NOT AVBL
ELLICOTT       NOT AVBL
FALCON         PTSUNNY   67  46  46 CALM      30.45S
FORT CARSON    FAIR      68  51  53 SE2       30.39R
LIMON          FAIR      74  49  41 SE6       30.36S
MONUMENT HILL  FAIR      66  45  45 CALM      30.46S
TRINIDAD       FAIR      70  49  47 CALM      30.38F
$$

COZ042>045-048>051-090-091-301800-
...NORTHEAST COLORADO...

CITY           SKY/WX    TMP DP  RH WIND       PRES   REMARKS
GREELEY ARPT   FAIR      72  52  49 NW5       30.34S
AKRON          FAIR      75  52  44 VRB6      30.32S
BURLINGTON     FAIR      70  59  68 SE7       30.31S
WRAY           PTSUNNY   77  61  57 E9        30.28F
STERLING       FAIR      75  57  53 SE7       30.28S
HOLYOKE        FAIR      79  61  53 CALM      30.29S
FORT MORGAN    FAIR      76  51  41 W3        30.32S
$$

COZ086-089-092>099-301800-
...SOUTHEAST COLORADO...

CITY           SKY/WX    TMP DP  RH WIND       PRES   REMARKS
PUEBLO         CLOUDY    74  52  46 VRB6      30.32F
LA JUNTA       FAIR      75  58  55 E9        30.31S
LAMAR          FAIR      71  62  73 E6        30.28R
SPRINGFIELD      N/A     68  54  60 CALM      30.32R
$$




USA.gov is the U.S. government's official web portal to all federal, state and local government web resources and services.